******** Week 367 almanac for PRN-1 ******** ID: 1 Health: 0 Eccentricity: 0.001700878143 Time of Applicability(s): 61440 Orbital Inclination(rad): 0.957553951 Rate of Right Ascen(r/s): -8.331775623e-09 SQRT(A) (m 1/2): 5153.563477 Right Ascen at Week(rad): 2.260785081 Argument of Perigee(rad): 0.1633584678 Mean Anom(rad): 2.361622222 Af0(s): 0.0002321316895 Af1(s/s): -7.275958e-12 week: 367 ******** Week 367 almanac for PRN-2 ******** ID: 2 Health: 0 Eccentricity: 0.0168223381 Time of Applicability(s): 61440 Orbital Inclination(rad): 0.9626112939 Rate of Right Ascen(r/s): -8.286059433e-09 SQRT(A) (m 1/2): 5153.712891 Right Ascen at Week(rad): 2.098410443 Argument of Perigee(rad): -0.7810257942 Mean Anom(rad): -2.412393016 Af0(s): 6.481599121e-05 Af1(s/s): 7.275958e-12 week: 367 ******** Week 367 almanac for PRN-3 ******** ID: 3 Health: 0 Eccentricity: 0.006712436676 Time of Applicability(s): 61440 Orbital Inclination(rad): 0.9942616319 Rate of Right Ascen(r/s): -7.440309919e-09 SQRT(A) (m 1/2): 5153.567871 Right Ascen at Week(rad): -3.033912896 Argument of Perigee(rad): 1.209420264 Mean Anom(rad): 0.3001876067 Af0(s): 0.0003926643188 Af1(s/s): -1.455192e-11 week: 367 ******** Week 367 almanac for PRN-4 ******** ID: 4 Health: 0 Eccentricity: 0.003714561462 Time of Applicability(s): 61440 Orbital Inclination(rad): 0.9708564407 Rate of Right Ascen(r/s): -7.691748963e-09 SQRT(A) (m 1/2): 5153.660156 Right Ascen at Week(rad): -1.964594962 Argument of Perigee(rad): -2.872126234 Mean Anom(rad): -3.033212942 Af0(s): 4.295943603e-05 Af1(s/s): 0 week: 367 ******** Week 367 almanac for PRN-5 ******** ID: 5 Health: 0 Eccentricity: 0.00550365448 Time of Applicability(s): 61440 Orbital Inclination(rad): 0.9807434262 Rate of Right Ascen(r/s): -7.588887536e-09 SQRT(A) (m 1/2): 5153.692383 Right Ascen at Week(rad): -3.094250847 Argument of Perigee(rad): 1.421748522 Mean Anom(rad): -2.369242691 Af0(s): -0.0001831428589 Af1(s/s): 0 week: 367 ******** Week 367 almanac for PRN-6 ******** ID: 6 Health: 0 Eccentricity: 0.003776073456 Time of Applicability(s): 61440 Orbital Inclination(rad): 0.9863520435 Rate of Right Ascen(r/s): -8.046049436e-09 SQRT(A) (m 1/2): 5153.617188 Right Ascen at Week(rad): 2.212642951 Argument of Perigee(rad): -0.5335545458 Mean Anom(rad): 1.582499672 Af0(s): -0.0004815978882 Af1(s/s): 3.637979e-12 week: 367 ******** Week 367 almanac for PRN-7 ******** ID: 7 Health: 0 Eccentricity: 0.02076625824 Time of Applicability(s): 61440 Orbital Inclination(rad): 0.9507768718 Rate of Right Ascen(r/s): -8.011762293e-09 SQRT(A) (m 1/2): 5153.54248 Right Ascen at Week(rad): -0.9558868708 Argument of Perigee(rad): -1.976204305 Mean Anom(rad): 0.7507375382 Af0(s): -0.0001386760742 Af1(s/s): -3.637979e-12 week: 367 ******** Week 367 almanac for PRN-8 ******** ID: 8 Health: 0 Eccentricity: 0.01159095764 Time of Applicability(s): 61440 Orbital Inclination(rad): 0.9428912518 Rate of Right Ascen(r/s): -8.148910863e-09 SQRT(A) (m 1/2): 5153.658691 Right Ascen at Week(rad): 1.089841294 Argument of Perigee(rad): 0.5384860544 Mean Anom(rad): -2.729460403 Af0(s): 0.0003625173462 Af1(s/s): -7.275958e-12 week: 367 ******** Week 367 almanac for PRN-9 ******** ID: 9 Health: 0 Eccentricity: 0.003362178802 Time of Applicability(s): 61440 Orbital Inclination(rad): 0.9651159969 Rate of Right Ascen(r/s): -7.714607058e-09 SQRT(A) (m 1/2): 5153.697754 Right Ascen at Week(rad): -2.029175328 Argument of Perigee(rad): 2.047031449 Mean Anom(rad): -2.125071224 Af0(s): 0.0005991710815 Af1(s/s): -3.637979e-12 week: 367 ******** Week 367 almanac for PRN-10 ******** ID: 10 Health: 0 Eccentricity: 0.01093578339 Time of Applicability(s): 61440 Orbital Inclination(rad): 0.9937762708 Rate of Right Ascen(r/s): -7.428880871e-09 SQRT(A) (m 1/2): 5153.615723 Right Ascen at Week(rad): -3.03642097 Argument of Perigee(rad): -2.257396541 Mean Anom(rad): -0.6935828971 Af0(s): -0.0004650170532 Af1(s/s): 0 week: 367 ******** Week 367 almanac for PRN-11 ******** ID: 11 Health: 0 Eccentricity: 0.002237319946 Time of Applicability(s): 61440 Orbital Inclination(rad): 0.9632404657 Rate of Right Ascen(r/s): -8.274630386e-09 SQRT(A) (m 1/2): 5153.546387 Right Ascen at Week(rad): 2.230379229 Argument of Perigee(rad): -2.330485707 Mean Anom(rad): 2.751852179 Af0(s): -0.0002909182861 Af1(s/s): 1.455192e-11 week: 367 ******** Week 367 almanac for PRN-12 ******** ID: 12 Health: 0 Eccentricity: 0.008890628815 Time of Applicability(s): 61440 Orbital Inclination(rad): 0.9594474585 Rate of Right Ascen(r/s): -7.600316584e-09 SQRT(A) (m 1/2): 5153.702637 Right Ascen at Week(rad): 0.1619402097 Argument of Perigee(rad): 1.574806174 Mean Anom(rad): 0.04162008959 Af0(s): -0.0004800905395 Af1(s/s): 0 week: 367 ******** Week 367 almanac for PRN-13 ******** ID: 13 Health: 0 Eccentricity: 0.01015329361 Time of Applicability(s): 61440 Orbital Inclination(rad): 0.9763272393 Rate of Right Ascen(r/s): -7.691748963e-09 SQRT(A) (m 1/2): 5153.617676 Right Ascen at Week(rad): -1.853418056 Argument of Perigee(rad): 0.9935881189 Mean Anom(rad): -2.952917512 Af0(s): 0.0005366161133 Af1(s/s): 0 week: 367 ******** Week 367 almanac for PRN-14 ******** ID: 14 Health: 0 Eccentricity: 0.006989002228 Time of Applicability(s): 61440 Orbital Inclination(rad): 0.9427714096 Rate of Right Ascen(r/s): -7.806039438e-09 SQRT(A) (m 1/2): 5153.608398 Right Ascen at Week(rad): 0.1065757121 Argument of Perigee(rad): -2.725913447 Mean Anom(rad): -0.08848515012 Af0(s): 0.0005878659668 Af1(s/s): 0 week: 367 ******** Week 367 almanac for PRN-15 ******** ID: 15 Health: 0 Eccentricity: 0.01667928696 Time of Applicability(s): 61440 Orbital Inclination(rad): 0.9431788732 Rate of Right Ascen(r/s): -7.943188008e-09 SQRT(A) (m 1/2): 5153.662109 Right Ascen at Week(rad): -2.174389305 Argument of Perigee(rad): 1.509974139 Mean Anom(rad): 2.559989606 Af0(s): 0.0003195579102 Af1(s/s): 3.637979e-12 week: 367 ******** Week 367 almanac for PRN-16 ******** ID: 16 Health: 0 Eccentricity: 0.01500177383 Time of Applicability(s): 61440 Orbital Inclination(rad): 0.9585606259 Rate of Right Ascen(r/s): -7.634603726e-09 SQRT(A) (m 1/2): 5153.625977 Right Ascen at Week(rad): 0.1788278551 Argument of Perigee(rad): 0.9332089722 Mean Anom(rad): -1.681380014 Af0(s): 0.0001959553223 Af1(s/s): 7.275958e-12 week: 367 ******** Week 367 almanac for PRN-17 ******** ID: 17 Health: 0 Eccentricity: 0.01258850098 Time of Applicability(s): 61440 Orbital Inclination(rad): 0.9584707442 Rate of Right Ascen(r/s): -8.034620388e-09 SQRT(A) (m 1/2): 5153.57373 Right Ascen at Week(rad): 1.195309963 Argument of Perigee(rad): -1.114037069 Mean Anom(rad): -2.762867179 Af0(s): -9.19482666e-05 Af1(s/s): -7.275958e-12 week: 367 ******** Week 367 almanac for PRN-18 ******** ID: 18 Health: 0 Eccentricity: 0.005874156952 Time of Applicability(s): 61440 Orbital Inclination(rad): 0.9713058491 Rate of Right Ascen(r/s): -8.194627053e-09 SQRT(A) (m 1/2): 5153.580566 Right Ascen at Week(rad): 2.206925727 Argument of Perigee(rad): -2.871134165 Mean Anom(rad): 1.536560018 Af0(s): -0.0002946866577 Af1(s/s): 1.091394e-11 week: 367 ******** Week 367 almanac for PRN-19 ******** ID: 19 Health: 0 Eccentricity: 0.01136922836 Time of Applicability(s): 61440 Orbital Inclination(rad): 0.95760788 Rate of Right Ascen(r/s): -8.068907531e-09 SQRT(A) (m 1/2): 5153.685059 Right Ascen at Week(rad): 1.239180091 Argument of Perigee(rad): 2.955096019 Mean Anom(rad): -1.004772771 Af0(s): 0.0005509359253 Af1(s/s): 0 week: 367 ******** Week 367 almanac for PRN-20 ******** ID: 20 Health: 255 Eccentricity: 0.002185344696 Time of Applicability(s): 61440 Orbital Inclination(rad): 0.9604960782 Rate of Right Ascen(r/s): -7.817468486e-09 SQRT(A) (m 1/2): 5153.70752 Right Ascen at Week(rad): -2.023804898 Argument of Perigee(rad): -1.90614565 Mean Anom(rad): -0.05417656124 Af0(s): 9.19482666e-05 Af1(s/s): 1.818989e-11 week: 367 ******** Week 367 almanac for PRN-21 ******** ID: 21 Health: 0 Eccentricity: 0.0008478164673 Time of Applicability(s): 61440 Orbital Inclination(rad): 0.9636539215 Rate of Right Ascen(r/s): -7.726036106e-09 SQRT(A) (m 1/2): 5153.749512 Right Ascen at Week(rad): -3.02910872 Argument of Perigee(rad): -0.1775485391 Mean Anom(rad): -0.3931870645 Af0(s): 0.0003278483276 Af1(s/s): 0 week: 367 ******** Week 367 almanac for PRN-22 ******** ID: 22 Health: 0 Eccentricity: 0.01199674606 Time of Applicability(s): 61440 Orbital Inclination(rad): 0.9580153437 Rate of Right Ascen(r/s): -7.657461821e-09 SQRT(A) (m 1/2): 5153.57666 Right Ascen at Week(rad): 0.1821883067 Argument of Perigee(rad): -0.9930383425 Mean Anom(rad): -2.114968897 Af0(s): -1.281246338e-05 Af1(s/s): 7.275958e-12 week: 367 ******** Week 367 almanac for PRN-23 ******** ID: 23 Health: 0 Eccentricity: 0.006118774414 Time of Applicability(s): 61440 Orbital Inclination(rad): 0.9887488884 Rate of Right Ascen(r/s): -7.508884204e-09 SQRT(A) (m 1/2): 5153.674805 Right Ascen at Week(rad): -3.068718081 Argument of Perigee(rad): -2.740276166 Mean Anom(rad): 0.37064661 Af0(s): 0.0005042081177 Af1(s/s): 3.637979e-12 week: 367 ******** Week 367 almanac for PRN-24 ******** ID: 24 Health: 0 Eccentricity: 0.01800537109 Time of Applicability(s): 61440 Orbital Inclination(rad): 0.934747971 Rate of Right Ascen(r/s): -8.263201338e-09 SQRT(A) (m 1/2): 5153.571777 Right Ascen at Week(rad): -1.065275131 Argument of Perigee(rad): 1.141874926 Mean Anom(rad): 1.732901695 Af0(s): -2.261022949e-05 Af1(s/s): 1.818989e-11 week: 367 ******** Week 367 almanac for PRN-25 ******** ID: 25 Health: 0 Eccentricity: 0.01287746429 Time of Applicability(s): 61440 Orbital Inclination(rad): 0.947804784 Rate of Right Ascen(r/s): -7.748894201e-09 SQRT(A) (m 1/2): 5153.65625 Right Ascen at Week(rad): 0.06763147525 Argument of Perigee(rad): 1.160517137 Mean Anom(rad): -0.06504924929 Af0(s): 0.0003391534424 Af1(s/s): -3.637979e-12 week: 367 ******** Week 367 almanac for PRN-26 ******** ID: 26 Health: 0 Eccentricity: 0.01103115082 Time of Applicability(s): 61440 Orbital Inclination(rad): 0.9285521267 Rate of Right Ascen(r/s): -7.988904198e-09 SQRT(A) (m 1/2): 5153.6875 Right Ascen at Week(rad): -0.007747801405 Argument of Perigee(rad): 0.7131654951 Mean Anom(rad): -0.8901893499 Af0(s): -0.00028112052 Af1(s/s): -3.637979e-12 week: 367 ******** Week 367 almanac for PRN-27 ******** ID: 27 Health: 0 Eccentricity: 0.0143661499 Time of Applicability(s): 61440 Orbital Inclination(rad): 0.951957318 Rate of Right Ascen(r/s): -8.080336578e-09 SQRT(A) (m 1/2): 5153.622559 Right Ascen at Week(rad): 1.122293077 Argument of Perigee(rad): 0.8950538217 Mean Anom(rad): -2.618562131 Af0(s): -9.044091797e-05 Af1(s/s): -1.818989e-11 week: 367 ******** Week 367 almanac for PRN-28 ******** ID: 28 Health: 0 Eccentricity: 0.0004162788391 Time of Applicability(s): 61440 Orbital Inclination(rad): 0.9616885086 Rate of Right Ascen(r/s): -7.920329913e-09 SQRT(A) (m 1/2): 5153.505859 Right Ascen at Week(rad): -0.981100931 Argument of Perigee(rad): -0.3961089684 Mean Anom(rad): 1.471405158 Af0(s): -0.0004356237549 Af1(s/s): 1.091394e-11 week: 367 ******** Week 367 almanac for PRN-29 ******** ID: 29 Health: 0 Eccentricity: 0.003523826599 Time of Applicability(s): 61440 Orbital Inclination(rad): 0.96112525 Rate of Right Ascen(r/s): -8.034620388e-09 SQRT(A) (m 1/2): 5153.6875 Right Ascen at Week(rad): 1.212177011 Argument of Perigee(rad): 2.762907252 Mean Anom(rad): -2.790006206 Af0(s): -0.000266800708 Af1(s/s): 7.275958e-12 week: 367 ******** Week 367 almanac for PRN-30 ******** ID: 30 Health: 0 Eccentricity: 0.008210659027 Time of Applicability(s): 61440 Orbital Inclination(rad): 0.9360542515 Rate of Right Ascen(r/s): -8.194627053e-09 SQRT(A) (m 1/2): 5153.663086 Right Ascen at Week(rad): -0.9655858538 Argument of Perigee(rad): -2.286407728 Mean Anom(rad): 0.5215673249 Af0(s): 0.0001529958862 Af1(s/s): 1.455192e-11 week: 367 ******** Week 367 almanac for PRN-31 ******** ID: 31 Health: 0 Eccentricity: 0.01081180573 Time of Applicability(s): 61440 Orbital Inclination(rad): 0.9545399184 Rate of Right Ascen(r/s): -8.000333246e-09 SQRT(A) (m 1/2): 5153.524414 Right Ascen at Week(rad): -0.9314544068 Argument of Perigee(rad): 0.944628815 Mean Anom(rad): -0.3279588009 Af0(s): -0.0001220952393 Af1(s/s): 3.637979e-12 week: 367 ******** Week 367 almanac for PRN-32 ******** ID: 32 Health: 0 Eccentricity: 0.009378433227 Time of Applicability(s): 61440 Orbital Inclination(rad): 0.9681120531 Rate of Right Ascen(r/s): -7.680319916e-09 SQRT(A) (m 1/2): 5153.699219 Right Ascen at Week(rad): -2.012010922 Argument of Perigee(rad): -1.980533607 Mean Anom(rad): -2.072601665 Af0(s): 8.29041748e-06 Af1(s/s): 1.818989e-11 week: 367